Notices

What's New in latest Release from April 7th, 2021:

- Updated Glossary, including Speed of Maximum Gust, and Total Hourly Precipitation

- Updated national and regional climate services offices contacts and prices information

- Addition of station inventory lists for 1981-2010, 1971-2000, and 1961-1990 Normals.

If you haven't already, please take our survey and provide feedback about our website: https://eccc.sondage-survey.ca/f/LanguageSelection.aspx?s=442ca660-fcf1-47c0-95a9-59707d6fd709

Hourly Data Report for January 20, 2017

TORONTO CITY
ONTARIO

43°40'00.000" N
79°24'00.000" W
112.50 m
6158355
71508
XTO

Download Data

Hourly Data (January 2017)
Hourly Data Report for January 20, 2017
TIME
LST
Temp Definition
°C
Dew Point Definition
°C
Rel Hum Definition
%
Precip. Amount Definition
mm

Wind Dir Definition
10's deg

Wind Spd Definition
km/h
Visibility Definition
km
Stn Press Definition
kPa
Hmdx Definition


Wind Chill Definition


Weather Definition


00:00 2.2 -0.1 85 0.0 LegendMM LegendMM   100.11     LegendNANA
01:00 2.0 -0.2 85 0.0 LegendMM LegendMM   100.04     LegendNANA
02:00 2.0 -0.3 85 0.0 LegendMM LegendMM   99.98     LegendNANA
03:00 2.1 -0.2 85 0.0 LegendMM LegendMM   99.95     LegendNANA
04:00 2.0 0.2 88 0.0 LegendMM LegendMM   99.88     LegendNANA
05:00 2.0 -0.1 86 0.0 LegendMM LegendMM   99.82     LegendNANA
06:00 2.4 0.1 85 0.0 LegendMM LegendMM   99.74     LegendNANA
07:00 2.6 0.9 88 0.0 LegendMM LegendMM   99.68     LegendNANA
08:00 3.2 1.6 89 0.0 LegendMM LegendMM   99.61     LegendNANA
09:00 3.6 0.7 82 0.0 LegendMM LegendMM   99.59     LegendNANA
10:00 3.6 0.6 81 0.0 LegendMM LegendMM   99.57     LegendNANA
11:00 3.7 0.9 82 0.0 LegendMM LegendMM   99.52     LegendNANA
12:00 3.6 1.0 83 0.0 LegendMM LegendMM   99.45     LegendNANA
13:00 3.7 1.3 84 0.0 LegendMM LegendMM   99.36     LegendNANA
14:00 4.0 1.7 85 0.0 LegendMM LegendMM   99.29     LegendNANA
15:00 3.9 1.9 87 0.0 LegendMM LegendMM   99.29     LegendNANA
16:00 3.7 2.4 91 0.0 LegendMM LegendMM   99.31     LegendNANA
17:00 4.0 2.5 90 0.0 LegendMM LegendMM   99.30     LegendNANA
18:00 4.0 2.5 90 0.0 LegendMM LegendMM   99.32     LegendNANA
19:00 4.2 2.7 90 0.0 LegendMM LegendMM   99.37     LegendNANA
20:00 4.1 3.1 93 0.0 LegendMM LegendMM   99.35     LegendNANA
21:00 3.8 2.8 93 0.0 LegendMM LegendMM   99.37     LegendNANA
22:00 3.4 2.7 95 0.0 LegendMM LegendMM   99.37     LegendNANA
23:00 3.4 2.9 96 0.0 LegendMM LegendMM   99.37     LegendNANA

Notes on Data Quality.

Legend

  • E = Estimated
  • M = Missing
  • NA = Not Available*
  • [empty] = Indicates an unobserved value
Date modified: